sat.trackr.live / text

‹ back to catalog

STARLINK-35915

NORAD 66521 · 2025-265F

PAYLOAD ACTIVE UNKNOWN

§ Identity

Operator
Country
US
Launch date
2025-11-19
Launch site
AFETR
Launch vehicle
Mass (kg)
RCS (m²)

Purposes: comms

External: N2YO · Heavens-Above · Gunter

§ Orbital elements

Epoch: 2026-09-20T16:16:04.256256Z

Period
94.27 min
Inclination
42.9973°
Eccentricity
0.0001054
Mean motion
15.27585112 rev/d
Perigee alt
482.3 km
Apogee alt
483.8 km
Semi-major
6,861.2 km
B*
2.3491e-4
RAAN
256.8060°
Arg perigee
274.6938°
Mean anomaly
85.3793°
Rev number
4,693

§ Raw data

STARLINK-359151 66521U 25265F   26263.67782704  .00006209  00000+0  23491-3 0  99982 66521  42.9973 256.8060 0001054 274.6938  85.3793 15.27585112 46936

JSON: /api/v1/satellites/66521 · /tle

For live sub-satellite position, see the globe view (requires WebGL).

§ Visibility from observer

Set your observer location to see the next 7 days of passes ≥ 10°. The values pass through the URL so the page stays shareable.

No JS? Fill the form by hand. The geolocation button needs JavaScript.